STARLINK-32114, 60287

Orbit data source: Space-Track

STARLINK-32114, 60287 is a payload satellite owned by SpaceX/Seattle (US) in LEO that was launched on Sun, 28 Jul 2024 UTC via an FALCON 9 launch vehicle from the Air Force Eastern Test Range (AFETR). Payload-class satellites include a variety of spacecraft equipped with specific instruments for various scientific and technological missions. These include communications satellites like Starlink; space stations such as the ISS; scientific satellites like the Hubble; Earth observation satellites from companies like Planet Labs, Umbra, and HawkEye 360; GPS; miniature CubeSats for education and research; and military/defense satellites.

Loading next visibility...
Identifier
60287, 2024-132K
Orbit
LEO
Country
Flag of USUS
Related business
Manufacturer
SpaceX/Seattle
Mission
Operational Commercial Communications
Bus & Motor
STARLINK V2M, Unknown motor
Mass
730 kg wet, ~700 kg dry
Launch date (UTC)
2024-07-28 (1 year ago)
Launch vehicle
FALCON 9
Launch site
Air Force Eastern Test Range (AFETR)
Object type
Payload
Rocket body
Debris
Shape & HBR
Box + 2 Pan, 17.7 m
Radar Cross Section
33.884 m², Large (>1 m²)

Expand to show TLE details & history
Last TLE update: 7 hours ago

TLE from 7 hours ago
0 STARLINK-32114
1 60287U 24132K   25298.34220648 -.00001287  00000-0 -31346-4 0  9991
2 60287  53.1606 321.4193 0001329  72.7999 287.3147 15.30200784 70837
Epoch: 2025-10-25T08:12Z
TLE epoch observation values (Epoch: 2025-10-25T08:12:46.639Z)
Latitude
-0.00006°
Longitude
164.2508°
Altitude
475.842 km
Speed
7.629 km/s
True Right ascension
21h 25m 40s
True Declination
0° 00' 00"
Sunlit
Object was in daylight at epoch
Visualization orbit readout
Latitude
Unknown
Longitude
Unknown
Altitude
Unknown
Speed
Unknown
Apparent Right ascension
Unknown
Apparent Declination
Unknown
Sunlit
N/A
Visualization observer readout
Local Sidereal Time
10:43:54
Azimuth
Unknown
Elevation
Unknown
Doppler factor
Unknown
Orbital elements
Apogee altitude
476.38 km
Perigee altitude
474.558 km
Semi-major axis
6,853.606 km
Eccentricity
0.00013
Inclination
53.1606°
RAAN
321.4193°
Arg. of periapsis
72.7999°
True anomaly
287.30016°
Mean anomaly
287.3147°
Eccentric anomaly
287.30743°
Mean motion
3.82529 °/min
Orbital period
94.11 mins
BSTAR
-0.000031346
Loading maneuver chart data...
Computing Atmospheric mass density...
Loading historical data...
Loading historical data...
Loading historical data...
Loading historical data...
Loading historical data...
Loading historical data...
Loading historical data...

Documentation

Showing up to 5 results
|